User: anonymous   Login
Location: Unspecified
(0.0000°N, 0.0000°E)
Time: 12:00:11
(UTC+00:00)
Language:

VELOX 1 - Orbit

View from above orbital plane
View from above orbital plane
View from above satellite
View from above satellite

Ground track
Ground track

The orbit data is extracted from the following two-line orbital elements,

1 40057U 14034E   18203.52601933  .00000238  00000-0  41053-4 0  9991
2 40057  98.2077 315.1912 0010205 209.1998 150.8637 14.77454639218864
Epoch (UTC): 22 July 2018 12:37:28
Eccentricity: 0.0010205
inclination: 98.2077°
perigee height: 630 km
apogee height: 644 km
right ascension of ascending node: 315.1912°
argument of perigee: 209.1998°
revolutions per day: 14.77454639
mean anomaly at epoch: 150.8637°
orbit number at epoch: 21886

The dashed part of the orbit path shows where the satellite is in the earth's shadow,  

DLR